Meknes, Morocco

2:42 AM WEST on May 01, 2017 (GMT +0100)
Meknes

Weather History for GMFM - September, 2012

Change the Weather History Date:

Thursday, September 6, 2012

  Actual Average (GMFF) Record (GMFF)
Temperature  
Mean Temperature 73 °F -  
Max Temperature 84 °F 83 °F 110 °F (2016)
Min Temperature 62 °F 60 °F 55 °F (2015)
Cooling Degree Days 8    
Growing Degree Days 23 (Base 50)    
Moisture  
Dew Point 58 °F    
Average Humidity 57    
Maximum Humidity 73    
Minimum Humidity 29    
Precipitation  
Precipitation 0.00 in 0.03 in - ()
Sea Level Pressure  
Sea Level Pressure 29.99 in    
Wind  
Wind Speed 3 mph ()    
Max Wind Speed 12 mph    
Max Gust Speed -    
Visibility 6.0 miles    
Events      
Averages and records for this station are not official NWS values.
T = Trace of Precipitation, MM = Missing Value Source: Averaged Metar Reports

Daily Weather History Graph

Daily Weather History Graph

Search for Another Location

Airport or City:

Trip Planner

Search our weather history database for the weather conditions in past years. The results will help you decide how hot, cold, wet, or windy it might be!

Date:

Astronomy

Sep. 06, 2012 Rise Set
Actual Time 6:59 AM WEST 7:40 PM WEST
Civil Twilight 6:34 AM WEST 8:05 PM WEST
Nautical Twilight 6:04 AM WEST 8:35 PM WEST
Astronomical Twilight 5:33 AM WEST 9:06 PM WEST
Moon 11:00 PM WEST (9/6) 12:27 PM WEST (9/6)
Length of Visible Light 13h 31m
Length of Day
12h 41m
Waning Gibbous, 69% of the Moon is Illuminated
Sep 6
Waning Gibbous
Sep 8
Last Quarter
Sep 16
New
Sep 22
First Quarter
Sep 30
Full

Hourly Weather History & Observations

Time (WEST) Temp. Heat Index Dew Point Humidity Pressure Visibility Wind Dir Wind Speed Gust Speed Precip Events Conditions
12:00 AM 69.8 °F - 57.2 °F 64% 30.04 in 5.0 mi Calm Calm - N/A   Unknown
1:00 AM 68 °F - 57 °F 60% 29.95 in 6 mi Calm Calm - -  
1:00 AM 68.0 °F - 57.2 °F 68% 30.01 in - Calm Calm - N/A   Clear
3:00 AM 66.2 °F - 55.4 °F 68% 29.98 in - ESE 4.6 mph - N/A   Clear
4:00 AM 66 °F - 55 °F 58% 29.90 in 6 mi ESE 3.5 mph - -  
4:00 AM 66.2 °F - 55.4 °F 68% 29.95 in - ESE 3.5 mph - N/A   Clear
6:00 AM 66.2 °F - 53.6 °F 64% 29.95 in - Calm Calm - N/A   Clear
7:00 AM 65 °F - 56 °F 65% 29.91 in 6 mi Calm Calm - -   Clear
7:00 AM 64.4 °F - 55.4 °F 73% 29.95 in - Calm Calm - N/A   Clear
8:00 AM 66.2 °F - 57.2 °F 73% 29.98 in - Calm Calm - N/A   Clear
9:00 AM 69.8 °F - 57.2 °F 64% 29.98 in - West 2.3 mph - N/A   Clear
10:00 AM 72 °F - 58 °F 53% 29.94 in 6 mi WNW 5.8 mph - -   Clear
10:00 AM 71.6 °F - 59.0 °F 64% 30.01 in - WNW 5.8 mph - N/A   Clear
11:00 AM 73.4 °F - 59.0 °F 61% 30.04 in - West 5.8 mph - N/A   Clear
12:00 PM 75.2 °F - 60.8 °F 61% 30.04 in - WNW 5.8 mph - N/A   Clear
1:00 PM 79 °F - 60 °F 42% 29.94 in 6 mi West 8.1 mph - -   Scattered Clouds
1:00 PM 78.8 °F - 60.8 °F 54% 30.04 in 6.2 mi West 8.1 mph - N/A   Scattered Clouds
2:00 PM 80.6 °F 81.1 °F 59.0 °F 48% 30.04 in 6.2 mi WNW 6.9 mph - N/A   Scattered Clouds
3:00 PM 82.4 °F 82.0 °F 57.2 °F 42% 30.04 in 6.2 mi WNW 11.5 mph - N/A   Scattered Clouds
4:00 PM 84 °F - 57 °F 29% 29.90 in 6 mi West 6.9 mph - -   Scattered Clouds
4:00 PM 84.2 °F 83.5 °F 57.2 °F 40% 30.01 in 6.2 mi West 6.9 mph - N/A   Scattered Clouds
5:00 PM 84.2 °F 83.5 °F 57.2 °F 40% 30.01 in 6.2 mi NNW 6.9 mph - N/A   Scattered Clouds
6:00 PM 82.4 °F 82.5 °F 59.0 °F 45% 30.01 in 6.2 mi NNW 8.1 mph - N/A   Scattered Clouds
7:00 PM 79 °F - 61 °F 43% 29.92 in 6 mi WNW 8.1 mph - -   Scattered Clouds
7:00 PM 78.8 °F - 60.8 °F 54% 30.01 in 6.2 mi WNW 8.1 mph - N/A   Scattered Clouds
8:00 PM 75.2 °F - 60.8 °F 61% 30.04 in 6.2 mi NW 10.4 mph - N/A   Mostly Cloudy
9:00 PM 71.6 °F - 62.6 °F 73% 30.06 in - NW 6.9 mph - N/A   Clear
10:00 PM 70 °F - 62 °F 68% 30.03 in 6 mi WNW 5.8 mph - -   Scattered Clouds